sat.trackr.live / text

‹ back to catalog

DAQI-2

NORAD 68760 · 2026-084A

PAYLOAD ACTIVE UNKNOWN

§ Identity

Operator
Country
PRC
Launch date
2026-04-17
Launch site
JSC
Launch vehicle
Mass (kg)
RCS (m²)

External: N2YO · Heavens-Above · Gunter

§ Orbital elements

Epoch: 2026-05-19T19:40:20.248320Z

Period
98.79 min
Inclination
98.2868°
Eccentricity
0.0002254
Mean motion
14.57608955 rev/d
Perigee alt
699.3 km
Apogee alt
702.5 km
Semi-major
7,079.0 km
B*
1.2342e-5
RAAN
214.1067°
Arg perigee
150.4995°
Mean anomaly
209.6331°
Rev number
476

§ Raw data

DAQI-21 68760U 26084A   26139.81967880  .00000010  00000+0  12342-4 0  99912 68760  98.2868 214.1067 0002254 150.4995 209.6331 14.57608955  4768

JSON: /api/v1/satellites/68760 · /tle

For live sub-satellite position, see the globe view (requires WebGL).

§ Visibility from observer

Set your observer location to see the next 7 days of passes ≥ 10°. The values pass through the URL so the page stays shareable.

No JS? Fill the form by hand. The geolocation button needs JavaScript.